Kezdőlap
METAR-TAF:

METAR-TAF

Repülőterek :

Vinton Veterans Memorial Airpark

Vinton, Iowa, Amerikai Egyesült Államok

földrajzi szélesség: 42-13-07N, földrajzi hosszúság: 092-01-33W, magasság: 258 m

Jelenlegi meteorológiai megfigyelések

A jelentés 22 perccel ezelõtt készült, 06:55 UTC
Keleti szél 10 kt széllökések: 16 kt
Hőmérséklet 20°C
Páratartalom 94%
Légköri nyomás 1007 hPa
Látótávolság: 16.1 km
Szórványos felhőzet 8000 lábon
enyhe esõ

METAR: KVTI 210655Z AUTO 10010G16KT 10SM -RA SCT080 20/19 A2975 RMK AO2 T02000187

Idő: 02:17 (07:17 UTC)


TAF: hiányzik

Meteorológiai megfigyelések és előrejelzések több, mint 4000 repülőtéren (METAR és TAF jelentéseket).

A térképen piros és sárga pontok jelzik az elérhető meteorológiai állomásokat.

Mozgassa az egeret a pont fölött, hogy megjelenjen az állomás neve.

Azután kattintson az időjárási megfigyelések és előrejelzések megtekintéséhez.

A térkép megváltoztatása: kattintson a fekete keresztel jelölt zöld gombra ráközelítéshez, a vonallal jelölt zöld gombra távolításhoz, vagy a zöld nyilakra a szomszédos térképek eléréséhez.


METAR-TAF: